SCP
0 0 0 0 0 0 0 0 0 0 0 0 0 0 0 0 0 0 0 0 0 0
0 0 0 0 0 0 0 0 0 0 0 0 0 0 0 0 0 0 0 0 0 0
0 0 0 0 0 0 0 0 0 0 0 0 0 0 0 0 0 0 0 0 0 0
0 0 0 0 0 0 0 0 0 0 0 0 0 0 0 0 0 0 0 0 0 0
0 0 0 0 0 0 0 0 0 0 0 0 0 0 0 0 0 0 0 0 0 0
0 0 0 0 0 0 0 0 0 0 0 0 0 0 0 0 0 0 0 0 0 0
0 0 0 0 0 0 0 0 0 0 0 0 0 0 0 0 0 0 0 0 0 0
0 0 0 0 0 0 0 0 0 0 0 0 0 0 0 0 0 0 0 0 0 0
0 0 0 0 0 0 0 0 0 0 0 0 0 0 0 0 0 0 0 0 0 0
0 0 0 0 0 0 0 0 0 0 0 0 0 0 0 0 0 0 0 0 0 0
0 0 0 0 0 0 0 0 0 0 0 0 0 0 0 0 0 0 0 0 0 0
0 0 0 0 0 0 0 0 0 0 0 0 0 0 0 0 0 0 0 0 0 0
0 0 0 0 0 0 0 0 0 0 0 0 0 0 0 0 0 0 0 0 0 0
0 0 0 0 0 0 0 0 0 0 0 0 0 0 0 0 0 0 0 0 0 0
Wind_Speed_500mb
112 109 101 96 94 94 102 95 83 80 73 70 71 71 69 64 59 56 56 55 52 50
117 115 109 104 100 95 95 92 81 81 73 79 73 72 72 69 66 60 60 58 55 56
122 116 109 104 100 100 93 91 88 83 75 77 77 73 72 74 70 62 63 60 60 60
121 117 112 111 101 93 95 88 83 86 83 80 79 78 74 75 71 68 66 64 62 61
122 118 112 104 101 96 95 92 92 83 87 86 83 81 78 75 74 73 70 67 65 60
115 108 112 110 103 95 94 93 87 85 87 90 86 81 78 75 75 73 70 67 63 62
100 103 98 100 101 95 95 93 84 80 86 88 89 86 81 77 74 71 66 63 59 47
89 93 88 87 89 84 85 85 79 80 69 75 80 82 75 73 69 68 63 54 34 32
74 82 77 79 76 75 78 72 78 82 90 79 58 79 72 68 63 57 43 25 37 42
66 73 72 72 63 55 56 59 62 61 65 50 48 57 58 39 34 38 45 43 51 37
34 38 52 53 53 55 52 54 54 47 36 39 44 50 43 44 46 54 53 50 42 32
52 49 44 53 53 55 48 43 36 34 37 31 35 44 43 38 49 49 55 51 38 38
38 38 37 35 35 35 39 38 39 43 45 42 51 50 54 43 39 38 51 43 39 41
36 31 30 26 23 23 28 29 27 25 26 29 42 46 49 49 49 56 55 45 43 42
Wind_Direction_500mb
210 211 212 212 209 210 210 213 218 220 224 226 226 230 233 237 244 247 250 252 255 258
212 214 216 216 215 215 214 215 218 225 229 229 232 231 234 237 243 248 249 251 253 253
215 217 220 218 218 220 220 223 224 225 232 231 232 235 238 240 244 245 245 246 247 250
217 218 221 221 221 225 226 225 226 229 229 233 234 237 239 241 241 241 242 242 245 247
217 217 220 223 224 228 231 235 233 235 233 236 237 240 243 243 239 238 241 242 243 241
216 218 219 222 228 230 233 233 236 235 238 240 239 243 246 244 240 240 242 243 244 249
221 222 223 223 228 230 231 231 234 237 239 238 239 242 244 242 240 237 239 239 244 242
223 223 222 223 228 233 235 236 243 246 250 250 248 247 241 236 236 235 230 239 234 245
222 222 222 224 230 233 236 236 246 241 244 249 263 250 244 236 238 231 231 251 218 232
216 219 223 230 232 228 231 236 239 244 238 247 249 253 225 209 226 217 222 215 226 214
191 210 206 211 219 221 231 243 251 244 222 237 230 223 211 201 196 207 227 225 209 208
202 206 197 209 215 218 225 230 210 210 210 203 196 208 223 217 206 232 224 203 183 206
141 170 184 197 202 200 201 206 223 232 238 232 218 234 241 236 231 228 204 188 191 204
88 115 131 144 160 180 202 218 224 225 234 225 223 224 228 227 216 204 195 193 195 200
Wind_Speed_850mb
112 109 101 96 94 94 102 95 83 80 73 70 71 71 69 64 59 56 56 55 52 50
117 115 109 104 100 95 95 92 81 81 73 79 73 72 72 69 66 60 60 58 55 56
122 116 109 104 100 100 93 91 88 83 75 77 77 73 72 74 70 62 63 60 60 60
121 117 112 111 101 93 95 88 83 86 83 80 79 78 74 75 71 68 66 64 62 61
122 118 112 104 101 96 95 92 92 83 87 86 83 81 78 75 74 73 70 67 65 60
115 108 112 110 103 95 94 93 87 85 87 90 86 81 78 75 75 73 70 67 63 62
100 103 98 100 101 95 95 93 84 80 86 88 89 86 81 77 74 71 66 63 59 47
89 93 88 87 89 84 85 85 79 80 69 75 80 82 75 73 69 68 63 54 34 32
74 82 77 79 76 75 78 72 78 82 90 79 58 79 72 68 63 57 43 25 37 42
66 73 72 72 63 55 56 59 62 61 65 50 48 57 58 39 34 38 45 43 51 37
34 38 52 53 53 55 52 54 54 47 36 39 44 50 43 44 46 54 53 50 42 32
52 49 44 53 53 55 48 43 36 34 37 31 35 44 43 38 49 49 55 51 38 38
38 38 37 35 35 35 39 38 39 43 45 42 51 50 54 43 39 38 51 43 39 41
36 31 30 26 23 23 28 29 27 25 26 29 42 46 49 49 49 56 55 45 43 42
Wind_Direction_850mb
210 211 212 212 209 210 210 213 218 220 224 226 226 230 233 237 244 247 250 252 255 258
212 214 216 216 215 215 214 215 218 225 229 229 232 231 234 237 243 248 249 251 253 253
215 217 220 218 218 220 220 223 224 225 232 231 232 235 238 240 244 245 245 246 247 250
217 218 221 221 221 225 226 225 226 229 229 233 234 237 239 241 241 241 242 242 245 247
217 217 220 223 224 228 231 235 233 235 233 236 237 240 243 243 239 238 241 242 243 241
216 218 219 222 228 230 233 233 236 235 238 240 239 243 246 244 240 240 242 243 244 249
221 222 223 223 228 230 231 231 234 237 239 238 239 242 244 242 240 237 239 239 244 242
223 223 222 223 228 233 235 236 243 246 250 250 248 247 241 236 236 235 230 239 234 245
222 222 222 224 230 233 236 236 246 241 244 249 263 250 244 236 238 231 231 251 218 232
216 219 223 230 232 228 231 236 239 244 238 247 249 253 225 209 226 217 222 215 226 214
191 210 206 211 219 221 231 243 251 244 222 237 230 223 211 201 196 207 227 225 209 208
202 206 197 209 215 218 225 230 210 210 210 203 196 208 223 217 206 232 224 203 183 206
141 170 184 197 202 200 201 206 223 232 238 232 218 234 241 236 231 228 204 188 191 204
88 115 131 144 160 180 202 218 224 225 234 225 223 224 228 227 216 204 195 193 195 200